This demonstration page uses our WeatherBlox Daily Observations layout. Learn more.

38.89511, -77.03637

Hourly Observations for January 1, 2018

Temp ( °F °C ) Dew Point ( °F °C ) Humidity (%) Winds ( mph kmh ) Pressure ( in mb ) Visibility ( mi km ) Precip ( " mm )
12:52 am 00:52 Clear 16 -8.9 2 -16.7 54 54 N 8 13 30.44 1031 10 16.0934 0 0
1:52 am 01:52 Clear 16 -8.9 3 -16.1 56 56 NW 8 13 30.45 1031 10 16.0934 0 0
2:52 am 02:52 Clear 16 -8.9 3 -16.1 56 56 NW 10 17 30.45 1031 10 16.0934 0 0
3:52 am 03:52 Clear 14 -10 3 -16.1 61 61 NW 6 9 30.45 1031 10 16.0934 0 0
4:52 am 04:52 Clear 14 -10 3 -16.1 61 61 NNW 10 17 30.47 1032 10 16.0934 0 0
5:52 am 05:52 Clear 13 -10.6 3 -16.1 64 64 NNW 7 11 30.48 1032 10 16.0934 0 0
6:52 am 06:52 Clear 15 -9.4 3 -16.1 59 59 NNW 7 11 30.5 1033 10 16.0934 0 0
7:52 am 07:52 Mostly Sunny 15 -9.4 3 -16.1 59 59 W 7 11 30.5 1033 10 16.0934 0 0
8:52 am 08:52 Sunny 18 -7.8 4 -15.6 54 54 WNW 9 15 30.52 1034 10 16.0934 0 0
9:52 am 09:52 Sunny 20 -6.7 3 -16.1 48 48 NW 12 19 30.53 1034 10 16.0934 0 0
10:52 am 10:52 Partly Cloudy 22 -5.6 2 -16.7 42 42 NW 13 20 30.53 1034 10 16.0934 0 0
11:52 am 11:52 Mostly Cloudy 23 -5 2 -16.7 40 40 NW 14 22 30.5 1033 10 16.0934 0 0
12:52 pm 12:52 Mostly Cloudy 24 -4.4 1 -17.2 36 36 NW 14 22 30.48 1032 10 16.0934 0 0
1:52 pm 13:52 Mostly Cloudy 23 -5 1 -17.2 38 38 NNW 13 20 30.47 1032 10 16.0934 0 0
2:52 pm 14:52 Mostly Cloudy 23 -5 1 -17.2 38 38 NNW 15 24 30.46 1031 10 16.0934 0 0
3:52 pm 15:52 Partly Cloudy 23 -5 -1 -18.3 35 35 NW 15 24 30.46 1031 10 16.0934 0 0
4:52 pm 16:52 Mostly Sunny 22 -5.6 0 -17.8 38 38 NW 10 17 30.46 1031 10 16.0934 0 0
5:52 pm 17:52 Mostly Clear 22 -5.6 0 -17.8 38 38 WNW 10 17 30.47 1032 10 16.0934 0 0
6:52 pm 18:52 Clear 21 -6.1 -1 -18.3 38 38 NW 16 26 30.48 1032 10 16.0934 0 0
7:52 pm 19:52 Clear 20 -6.7 -3 -19.4 36 36 WNW 20 31 30.5 1033 10 16.0934 0 0
8:52 pm 20:52 Clear 18 -7.8 -2 -18.9 41 41 NW 17 28 30.52 1034 10 16.0934 0 0
9:52 pm 21:52 Partly Cloudy 17 -8.3 0 -17.8 47 47 NNW 20 31 30.54 1034 10 16.0934 0 0
10:52 pm 22:52 Mostly Clear 16 -8.9 -3 -19.4 43 43 NW 14 22 30.56 1035 10 16.0934 0 0
11:52 pm 23:52 Mostly Clear 15 -9.4 -4 -20 42 42 NW 6 9 30.56 1035 10 16.0934 0 0

Powered by AerisWeather